Wind_Speed
3 3 3 3 2 2 3 2 2 2 3 2 2 2 2 2 1 1 1 1 1 1 2 2 2 2 3 3 3 4 4 4 5 5 6 6 6 6 6 6 6 6 7
5 4 4 4 3 3 3 3 2 3 3 3 2 1 1 1 1 1 2 2 2 3 2 3 3 3 3 4 4 5 5 5 6 6 6 6 6 6 7 7 8 8 8
5 5 5 5 4 4 3 3 3 3 4 4 4 3 3 2 2 2 3 3 3 3 3 4 4 4 4 5 5 5 6 7 7 7 7 7 7 7 7 8 9 9 9
6 6 6 6 6 5 4 4 4 3 4 4 5 4 4 4 4 4 4 5 5 5 5 5 5 5 6 6 6 7 7 8 8 8 8 8 8 8 9 9 9 9 10
7 7 7 7 7 6 6 6 5 4 4 4 5 6 6 5 5 5 6 6 6 7 7 7 7 6 7 7 7 8 9 9 9 9 9 10 10 9 9 10 10 10 11
8 8 8 8 8 7 7 7 7 6 6 5 6 7 7 7 7 7 7 8 8 8 8 8 8 8 8 8 8 9 9 9 10 10 11 11 11 11 12 12 12 12 13
8 8 8 9 9 8 8 8 8 7 7 8 8 8 8 8 8 8 9 9 9 9 9 9 9 9 9 9 10 10 10 10 11 12 12 13 13 13 13 13 13 14 14
9 9 9 10 10 10 10 9 9 9 9 9 9 9 9 9 9 9 10 10 10 11 11 11 11 11 11 12 12 12 12 12 13 14 14 15 15 15 15 15 15 15 16
10 10 9 10 11 11 11 11 11 10 10 10 9 10 10 10 11 10 11 12 12 12 12 12 13 12 13 13 14 14 14 15 15 16 16 17 16 16 17 17 17 17 17
10 10 11 11 11 12 12 12 12 11 11 11 11 11 11 11 12 12 12 12 13 13 14 14 14 15 15 15 16 16 17 17 17 18 18 18 19 19 19 19 19 19 19
10 11 12 13 13 13 14 13 13 12 12 12 12 12 12 13 13 14 14 13 14 14 14 15 16 16 17 17 17 18 18 18 19 19 19 20 20 20 21 21 21 21 22
10 12 12 12 14 15 15 14 14 14 14 14 14 14 13 14 14 14 15 15 15 16 16 17 17 18 18 18 19 19 19 20 21 21 21 22 22 22 22 23 23 23 23
9 10 11 12 13 14 15 15 16 16 16 16 15 15 16 16 16 16 16 17 17 17 17 17 18 19 19 20 20 20 21 21 22 22 23 23 23 23 24 24 25 25 25
9 10 11 13 13 14 14 15 16 16 16 16 16 16 17 17 17 18 18 18 18 18 18 19 19 20 20 21 21 22 22 23 23 23 24 25 25 26 26 26 26 27 27
8 9 10 11 13 14 15 16 17 17 17 17 17 17 18 18 19 19 19 19 19 19 20 21 21 21 21 22 22 23 24 24 24 24 25 26 26 27 27 27 27 28 29
9 10 11 11 12 13 14 15 17 17 18 19 19 19 18 19 19 20 20 21 21 21 21 22 23 23 23 23 24 25 25 25 25 26 26 27 27 27 28 29 30 30 31
9 10 10 11 12 12 13 14 15 16 17 18 19 19 20 20 21 21 21 22 22 22 23 23 25 25 25 25 27 26 26 26 27 27 27 27 28 29 29 30 31 31 32
11 11 11 12 12 13 14 15 16 17 18 19 20 20 21 22 22 22 22 23 24 24 24 25 26 26 27 28 28 28 27 27 28 28 29 29 29 30 30 30 31 32 32
12 11 11 11 12 13 14 16 16 17 18 19 20 21 22 22 23 23 24 24 25 25 25 25 26 27 27 28 28 28 28 28 28 28 29 29 30 31 31 31 32 33 33
14 13 13 12 13 14 15 16 16 17 19 19 20 21 21 22 23 23 24 25 26 26 26 26 27 27 27 28 28 28 29 29 29 29 30 30 31 31 32 33 33 33 34
16 16 16 15 16 16 16 17 17 18 19 20 20 21 22 22 23 23 24 24 26 26 27 28 28 27 28 29 29 29 29 29 30 31 31 31 32 33 33 34 34 34 34
17 17 17 18 18 18 18 18 19 19 20 21 22 22 23 24 24 25 25 26 27 27 28 28 28 29 29 30 30 30 31 31 31 32 32 32 33 34 34 34 34 35 35
19 18 19 19 19 19 19 20 20 21 22 22 22 22 23 23 25 26 26 27 27 28 29 28 29 30 30 30 31 32 32 33 33 33 33 33 34 34 34 35 35 35 35
19 19 19 19 19 19 19 20 21 21 22 22 23 24 24 24 25 26 27 28 29 29 30 30 30 31 31 31 32 33 33 33 34 34 34 34 34 35 35 36 36 36 36
21 21 21 20 20 20 20 21 22 22 23 24 25 26 26 27 27 28 28 28 29 30 31 32 32 32 33 33 33 34 33 34 34 33 34 34 35 36 36 37 37 37 37
23 23 23 23 22 22 23 23 23 24 25 26 26 27 27 28 28 29 29 29 30 31 32 32 32 33 33 33 33 34 34 35 35 35 35 35 36 36 37 37 37 37 37
Wind_Direction
192 193 190 185 179 174 172 167 167 176 172 159 155 149 146 148 153 178 193 217 239 260 282 295 299 286 285 272 262 265 275 283 290 294 299 303 302 300 297 294 298 301 304
202 203 203 203 201 197 190 191 197 204 203 202 204 194 182 189 203 220 233 250 261 268 273 281 289 288 283 279 270 269 274 278 286 289 294 299 299 298 295 291 291 295 299
212 214 214 214 214 210 207 208 205 220 223 221 222 222 220 227 238 252 256 263 269 267 271 281 286 286 283 284 276 273 275 280 285 287 288 292 293 295 295 293 292 294 297
218 218 220 222 219 217 219 219 216 219 226 231 229 229 234 239 248 260 266 268 270 271 274 279 283 284 284 282 280 279 278 279 282 282 284 288 290 292 293 293 294 295 295
225 224 225 227 226 226 229 231 227 231 241 241 241 240 241 246 253 261 268 270 270 271 273 276 279 279 280 279 281 280 280 281 282 280 280 284 285 287 289 291 291 291 292
231 231 232 231 233 233 235 239 237 241 249 251 253 251 248 252 257 262 270 272 270 269 271 274 277 276 277 278 282 283 283 284 283 281 282 283 283 283 286 288 288 288 290
233 236 239 237 238 238 239 242 248 252 256 258 260 260 256 254 261 266 269 274 272 270 272 274 276 273 273 276 279 280 282 283 281 283 283 282 281 282 283 285 286 287 289
238 243 244 240 238 241 242 245 251 256 257 258 260 264 264 259 262 267 271 273 274 271 272 274 275 274 273 273 276 279 282 281 281 284 286 283 282 283 284 286 287 287 288
242 240 240 241 242 244 246 249 253 254 255 257 259 262 261 264 267 270 272 271 273 272 271 274 274 273 276 274 274 278 280 282 282 282 283 284 284 284 287 285 285 284 286
241 242 243 244 245 244 246 248 252 254 255 257 259 262 264 266 267 271 275 274 273 272 272 273 275 274 275 274 275 278 281 282 284 281 280 280 282 283 284 284 284 285 285
247 248 249 248 247 246 247 249 250 251 253 257 261 264 264 265 264 267 271 273 274 275 275 275 276 275 276 276 276 278 281 282 283 285 283 281 282 282 283 283 285 286 285
254 253 251 252 250 248 247 249 250 251 254 259 262 263 265 267 267 267 267 270 273 275 276 277 276 275 276 277 277 279 280 281 282 283 282 283 284 284 284 283 283 285 285
260 262 259 258 255 251 250 250 250 251 255 260 264 266 265 266 268 269 269 271 272 274 275 277 277 276 277 279 280 280 282 282 283 284 282 282 283 284 285 285 284 284 284
271 268 266 261 259 256 253 252 252 254 256 260 263 266 266 266 268 269 270 271 271 272 274 276 278 279 279 279 281 282 282 283 284 285 284 282 284 285 286 286 286 285 285
285 273 271 266 262 260 257 255 255 256 257 261 264 268 268 268 269 269 271 273 273 273 274 275 277 279 280 280 281 283 284 284 283 284 284 283 285 286 285 286 286 287 288
297 281 273 271 266 263 263 261 259 261 260 261 264 266 268 271 273 272 271 272 273 273 273 275 277 279 282 282 282 283 283 284 285 286 287 285 284 284 285 285 286 287 288
310 300 283 275 272 270 270 270 269 268 267 265 265 267 269 271 272 272 273 274 275 276 276 275 277 279 281 282 281 282 282 283 284 285 287 285 284 285 286 286 286 287 288
311 305 296 288 282 279 275 274 274 271 269 269 269 270 271 272 274 274 273 273 275 278 279 277 277 279 280 282 280 280 281 282 283 284 285 285 285 286 286 286 287 287 288
312 309 303 296 288 284 279 276 273 270 270 271 272 273 273 272 273 274 274 275 277 279 280 279 279 281 282 283 282 282 282 282 283 284 285 285 284 285 286 286 287 287 288
312 305 301 297 293 291 286 282 277 273 272 273 275 276 276 275 275 276 276 276 277 278 280 280 280 281 282 282 282 283 283 282 282 284 285 285 284 284 286 287 288 288 289
312 308 301 299 296 292 289 286 281 279 276 275 277 278 279 278 277 278 278 278 278 279 281 281 280 280 282 282 283 284 284 284 283 283 284 285 285 286 286 287 287 287 288
309 306 303 299 297 295 291 288 283 282 281 279 279 280 278 276 277 277 278 278 279 280 280 281 281 282 282 283 284 284 283 284 284 284 284 285 286 287 287 288 287 287 288
310 308 305 303 300 297 294 291 287 285 285 283 283 284 282 282 280 278 279 279 280 280 280 281 282 282 282 283 284 285 284 284 284 284 284 285 286 287 287 288 288 289 288
315 313 308 301 300 298 297 294 290 290 288 286 285 284 283 283 282 281 281 281 282 281 281 282 282 283 284 285 285 285 285 285 285 285 285 285 285 286 288 288 287 288 289
310 311 310 308 304 302 300 297 293 291 290 288 287 286 285 284 284 284 284 283 282 282 281 282 283 284 285 285 285 286 286 286 286 286 286 286 285 286 287 287 288 289 290
305 307 307 307 305 302 300 298 297 294 293 291 290 288 287 286 286 286 286 286 285 284 284 285 285 285 285 286 286 286 285 286 286 286 286 286 286 286 287 287 287 288 289
Height
5902 5903 5904 5905 5906 5907 5908 5908 5909 5909 5910 5911 5911 5912 5912 5912 5913 5913 5913 5914 5914 5914 5914 5914 5914 5914 5914 5914 5914 5914 5914 5914 5914 5914 5914 5914 5914 5914 5913 5913 5913 5912 5912
5902 5903 5904 5905 5906 5907 5907 5908 5909 5909 5910 5910 5911 5911 5912 5912 5913 5913 5913 5914 5914 5914 5914 5914 5914 5913 5913 5913 5913 5914 5914 5914 5913 5913 5913 5913 5913 5912 5912 5912 5911 5911 5911
5901 5902 5904 5905 5906 5906 5907 5908 5909 5909 5909 5910 5911 5911 5911 5912 5912 5913 5913 5913 5913 5913 5913 5913 5913 5913 5913 5913 5913 5913 5913 5913 5913 5912 5912 5912 5911 5911 5911 5910 5910 5909 5909
5900 5902 5903 5904 5905 5906 5907 5907 5908 5909 5909 5909 5910 5910 5911 5911 5912 5912 5912 5912 5913 5913 5913 5913 5913 5912 5912 5912 5912 5912 5912 5911 5911 5911 5911 5910 5910 5910 5909 5909 5908 5908 5907
5899 5901 5902 5903 5904 5905 5906 5907 5908 5908 5908 5909 5909 5910 5910 5911 5911 5911 5911 5912 5912 5912 5912 5912 5912 5911 5911 5911 5911 5911 5910 5910 5910 5909 5909 5909 5908 5908 5907 5907 5906 5906 5905
5899 5900 5901 5902 5903 5904 5905 5906 5907 5907 5908 5908 5908 5909 5909 5909 5910 5910 5910 5910 5910 5911 5911 5910 5910 5910 5910 5910 5909 5909 5909 5908 5908 5908 5907 5907 5906 5906 5905 5905 5904 5903 5903
5897 5899 5900 5901 5902 5903 5904 5905 5905 5906 5906 5907 5907 5907 5908 5908 5908 5909 5909 5909 5909 5909 5909 5909 5909 5908 5908 5908 5907 5907 5907 5906 5906 5905 5905 5904 5904 5903 5902 5902 5901 5900 5900
5896 5897 5898 5899 5900 5902 5902 5903 5904 5904 5905 5905 5906 5906 5906 5907 5907 5907 5907 5907 5907 5907 5907 5907 5906 5906 5906 5905 5905 5905 5904 5904 5903 5903 5902 5901 5901 5900 5899 5899 5898 5897 5896
5894 5895 5896 5897 5898 5899 5900 5901 5902 5902 5903 5903 5904 5904 5904 5904 5905 5905 5905 5904 5904 5904 5904 5904 5904 5904 5903 5903 5903 5902 5902 5901 5900 5900 5899 5898 5897 5897 5896 5895 5894 5893 5893
5892 5893 5894 5895 5896 5897 5898 5899 5899 5900 5900 5901 5901 5901 5902 5902 5902 5902 5902 5902 5901 5901 5901 5901 5901 5900 5900 5900 5899 5899 5899 5898 5897 5896 5895 5894 5894 5893 5892 5891 5890 5889 5888
5890 5891 5891 5892 5893 5894 5895 5896 5897 5897 5898 5898 5898 5899 5899 5899 5899 5900 5899 5899 5899 5898 5898 5898 5897 5897 5897 5896 5896 5895 5895 5894 5893 5892 5891 5891 5890 5888 5887 5887 5886 5885 5884
5888 5888 5889 5889 5890 5891 5892 5893 5893 5894 5895 5895 5895 5896 5896 5896 5896 5896 5896 5896 5895 5895 5894 5894 5894 5893 5893 5892 5892 5891 5890 5890 5889 5888 5887 5886 5885 5884 5883 5882 5881 5879 5878
5886 5886 5886 5887 5887 5888 5888 5889 5890 5891 5891 5892 5892 5892 5892 5893 5893 5893 5892 5892 5892 5891 5891 5890 5890 5889 5888 5888 5887 5887 5886 5885 5884 5883 5882 5881 5880 5879 5878 5876 5875 5874 5873
5884 5884 5884 5884 5884 5885 5885 5886 5887 5887 5888 5888 5888 5888 5888 5888 5888 5888 5888 5888 5888 5888 5887 5886 5885 5885 5884 5883 5883 5882 5881 5880 5879 5878 5877 5876 5875 5873 5872 5871 5869 5868 5867
5882 5881 5881 5881 5881 5881 5882 5882 5883 5883 5884 5884 5884 5884 5884 5884 5884 5884 5884 5884 5884 5883 5883 5882 5881 5880 5879 5879 5878 5877 5875 5874 5873 5872 5871 5870 5868 5867 5866 5865 5864 5862 5860
5880 5879 5879 5878 5878 5878 5878 5878 5879 5879 5879 5880 5880 5880 5880 5880 5879 5879 5879 5879 5878 5878 5877 5877 5875 5874 5874 5873 5872 5871 5870 5869 5868 5866 5865 5864 5862 5861 5860 5858 5857 5855 5853
5878 5877 5877 5876 5875 5875 5875 5875 5875 5875 5875 5875 5875 5875 5875 5875 5875 5874 5874 5873 5873 5872 5872 5871 5870 5869 5868 5867 5866 5865 5864 5862 5861 5860 5858 5857 5855 5854 5852 5851 5849 5848 5846
5876 5875 5874 5873 5872 5872 5871 5871 5871 5871 5870 5870 5870 5870 5870 5869 5869 5869 5868 5868 5867 5866 5866 5865 5864 5863 5862 5861 5859 5858 5857 5856 5854 5853 5852 5850 5848 5847 5845 5844 5842 5840 5838
5874 5872 5871 5870 5869 5868 5867 5867 5866 5866 5866 5865 5865 5865 5864 5864 5863 5863 5862 5862 5861 5860 5860 5859 5858 5857 5855 5854 5852 5851 5850 5849 5847 5846 5844 5843 5841 5839 5838 5836 5834 5832 5830
5871 5870 5868 5867 5865 5864 5863 5862 5861 5861 5861 5860 5860 5859 5859 5858 5857 5857 5856 5855 5855 5854 5853 5852 5851 5850 5849 5847 5845 5844 5843 5841 5840 5839 5837 5835 5833 5831 5830 5828 5826 5824 5822
5868 5867 5865 5863 5862 5860 5859 5858 5857 5856 5856 5855 5855 5854 5853 5852 5851 5851 5850 5849 5848 5847 5846 5845 5844 5843 5842 5840 5838 5837 5835 5833 5832 5830 5829 5827 5825 5823 5821 5819 5817 5815 5813
5864 5863 5861 5859 5857 5856 5854 5853 5852 5851 5851 5850 5849 5848 5846 5846 5845 5844 5843 5842 5841 5840 5839 5838 5837 5835 5834 5832 5830 5829 5827 5826 5824 5823 5820 5819 5817 5815 5813 5811 5808 5806 5804
5860 5858 5857 5855 5853 5851 5849 5848 5847 5846 5845 5844 5843 5842 5840 5840 5839 5837 5836 5835 5834 5833 5832 5830 5829 5828 5826 5824 5822 5821 5819 5817 5816 5814 5812 5810 5808 5806 5803 5801 5799 5797 5795
5857 5854 5852 5850 5848 5846 5845 5843 5842 5841 5840 5838 5837 5836 5835 5833 5832 5830 5829 5828 5827 5825 5824 5822 5821 5820 5818 5816 5814 5812 5810 5808 5807 5805 5803 5801 5799 5797 5794 5792 5790 5788 5785
5853 5850 5848 5845 5843 5841 5840 5838 5836 5835 5834 5832 5831 5830 5828 5827 5825 5824 5822 5821 5819 5817 5816 5814 5812 5811 5809 5807 5805 5803 5801 5799 5798 5796 5793 5791 5790 5787 5785 5783 5780 5778 5776
5847 5845 5843 5841 5839 5837 5835 5833 5831 5829 5827 5826 5824 5823 5821 5819 5818 5816 5814 5813 5811 5809 5808 5806 5804 5802 5800 5798 5796 5794 5792 5790 5788 5787 5784 5782 5780 5777 5775 5773 5770 5768 5766